�N����,����,�~����,�C��,���x,�C��,����,���ϕ���,�ő�u�ԕ���,�ő厞����,���˗�,�I�_���x,�n�����x,�ő啗���N��,DTYPE
"18/05/28","00:10",0.0,19.0,77.8,1006.0,281.8,0.8,1.3,326.8,0.00,15.1,20.6,"00:00:16",1
"18/05/28","00:20",0.0,19.2,75.6,1006.0,281.4,0.8,1.1,297.8,0.00,14.8,20.2,"00:17:44",1
"18/05/28","00:30",0.0,19.2,75.3,1006.0,308.4,1.0,1.7,336.6,0.00,14.8,20.5,"00:26:00",1
"18/05/28","00:40",0.0,19.1,75.3,1006.0,293.5,0.8,1.6,329.1,0.00,14.7,20.0,"00:38:32",1
"18/05/28","00:50",0.0,18.9,75.5,1005.5,305.6,1.1,1.6,319.8,0.00,14.5,20.2,"00:44:24",1
"18/05/28","01:00",0.0,18.9,76.2,1006.2,291.1,1.0,2.0,327.0,0.00,14.7,20.1,"00:51:04",1
"18/05/28","01:10",0.0,19.0,76.3,1006.0,317.4,1.2,2.5,337.9,0.00,14.8,20.1,"01:06:24",1
"18/05/28","01:20",0.0,19.1,76.7,1006.7,318.5,1.1,1.9,334.9,0.00,15.0,20.2,"01:15:12",1
"18/05/28","01:30",0.0,18.9,76.6,1006.7,314.9,1.2,1.9,340.4,0.00,14.7,20.1,"01:26:16",1
"18/05/28","01:40",0.0,18.9,77.4,1006.4,316.3,0.7,1.3,320.6,0.00,14.9,20.2,"01:32:00",1
"18/05/28","01:50",0.0,19.2,77.3,1006.2,345.1,1.0,1.7,76.2,0.00,15.2,20.1,"01:42:00",1
"18/05/28","02:00",0.0,18.9,78.6,1006.2,309.2,0.7,1.2,296.3,0.00,15.1,20.0,"01:51:52",1
"18/05/28","02:10",0.0,18.6,79.0,1006.0,299.7,1.1,1.7,334.7,0.00,14.9,20.0,"02:04:56",1
"18/05/28","02:20",0.0,18.8,77.9,1006.7,343.9,0.7,1.6,321.7,0.00,14.9,20.0,"02:10:56",1
"18/05/28","02:30",0.0,19.0,76.0,1006.2,248.7,1.1,2.4,242.8,0.00,14.7,19.9,"02:20:56",1
"18/05/28","02:40",0.0,18.9,75.2,1006.2,304.0,1.5,2.7,316.3,0.00,14.5,19.8,"02:32:48",1
"18/05/28","02:50",0.0,18.8,76.1,1006.2,347.4,0.6,1.4,325.1,0.00,14.5,20.0,"02:47:28",1
"18/05/28","03:00",0.0,18.7,76.6,1006.0,333.9,1.1,1.8,329.2,0.00,14.5,19.8,"02:55:04",1
"18/05/28","03:10",0.0,18.4,77.1,1006.0,297.6,1.0,2.1,323.2,0.00,14.4,19.9,"03:05:04",1
"18/05/28","03:20",0.0,18.1,78.6,1006.0,293.2,0.8,1.7,311.1,0.00,14.4,19.7,"03:17:20",1
"18/05/28","03:30",0.0,18.3,76.9,1005.7,287.5,1.0,1.9,300.1,0.00,14.2,19.8,"03:20:02",1
"18/05/28","03:40",0.0,18.2,76.7,1006.2,302.4,1.0,2.0,316.7,0.00,14.1,19.6,"03:30:24",1
"18/05/28","03:50",0.0,18.4,77.1,1006.0,331.2,1.1,2.1,323.1,0.00,14.4,19.8,"03:41:36",1
"18/05/28","04:00",0.0,18.1,78.8,1005.5,308.0,0.8,1.6,327.7,0.00,14.4,19.6,"03:50:08",1
"18/05/28","04:10",0.0,17.9,79.5,1005.7,274.4,1.0,1.8,328.2,0.00,14.3,19.7,"04:00:08",1
"18/05/28","04:20",0.0,18.0,79.4,1006.0,294.3,1.0,1.8,325.1,0.00,14.4,19.7,"04:19:28",1
"18/05/28","04:30",0.0,18.1,79.1,1006.0,302.9,1.1,1.9,334.3,0.00,14.5,19.6,"04:23:36",1
"18/05/28","04:40",0.0,18.2,78.7,1006.2,328.3,0.6,1.6,309.9,0.00,14.5,19.4,"04:34:56",1
"18/05/28","04:50",0.0,18.0,79.1,1006.0,292.2,0.8,1.6,329.9,0.00,14.4,19.4,"04:40:02",1
"18/05/28","05:00",0.0,17.8,80.9,1006.2,281.9,1.0,1.7,331.2,0.00,14.5,19.4,"04:52:08",1
"18/05/28","05:10",0.0,17.7,81.9,1006.2,318.9,1.1,1.6,332.4,0.00,14.6,19.6,"05:04:00",1
"18/05/28","05:20",0.0,18.0,80.8,1006.0,314.4,1.0,1.4,336.4,0.00,14.7,19.5,"05:10:32",1
"18/05/28","05:30",0.0,17.9,81.0,1006.4,280.4,1.0,1.7,302.2,0.00,14.6,19.3,"05:29:44",1
"18/05/28","05:40",0.0,18.3,80.0,1006.2,326.0,1.1,1.8,330.9,0.00,14.8,19.5,"05:37:04",1
"18/05/28","05:50",0.0,18.3,80.2,1006.4,318.4,1.1,1.6,315.5,0.00,14.9,19.3,"05:41:28",1
"18/05/28","06:00",0.0,18.4,81.6,1006.0,317.1,1.0,2.7,337.9,0.01,15.2,19.5,"05:53:52",1
"18/05/28","06:10",0.0,18.3,82.6,1006.2,279.8,0.7,1.0,310.9,0.02,15.3,19.4,"06:00:16",1
"18/05/28","06:20",0.0,18.6,82.0,1006.4,293.6,1.0,1.9,321.2,0.03,15.5,19.4,"06:12:32",1
"18/05/28","06:30",0.0,19.2,79.7,1006.7,310.0,1.3,2.5,331.9,0.06,15.6,19.6,"06:26:24",1
"18/05/28","06:40",0.0,19.8,76.2,1007.1,303.9,1.5,2.5,315.0,0.04,15.5,19.4,"06:34:08",1
"18/05/28","06:50",0.0,20.1,75.5,1006.9,312.3,1.1,1.8,341.3,0.05,15.7,19.4,"06:45:12",1
"18/05/28","07:00",0.0,20.5,75.7,1006.9,298.7,1.1,1.4,321.0,0.07,16.1,19.6,"06:53:04",1
"18/05/28","07:10",0.0,20.8,75.5,1007.1,287.3,0.8,1.4,268.5,0.07,16.4,19.4,"07:02:56",1
"18/05/28","07:20",0.0,21.1,72.9,1006.9,337.7,0.8,2.0,336.6,0.09,16.1,19.5,"07:16:08",1
"18/05/28","07:30",0.0,21.4,72.4,1006.7,233.1,0.6,1.8,256.0,0.12,16.3,19.7,"07:28:40",1
"18/05/28","07:40",0.0,22.0,69.3,1006.7,261.7,0.7,2.1,238.0,0.17,16.2,19.8,"07:31:28",1
"18/05/28","07:50",0.0,21.7,73.2,1006.7,184.1,0.2,0.6,205.1,0.12,16.7,19.9,"07:40:32",1
"18/05/28","08:00",0.0,21.9,70.8,1007.6,152.0,0.7,1.4,152.8,0.13,16.4,20.0,"07:55:12",1
"18/05/28","08:10",0.0,22.4,68.5,1006.9,248.1,0.3,1.1,117.4,0.13,16.4,20.0,"08:04:24",1
"18/05/28","08:20",0.0,22.6,66.6,1006.7,218.3,0.6,1.2,197.0,0.15,16.1,20.1,"08:17:20",1
"18/05/28","08:30",0.0,22.5,67.7,1006.4,167.9,0.7,1.9,195.0,0.14,16.3,20.2,"08:27:12",1
"18/05/28","08:40",0.0,22.7,66.7,1007.1,230.9,0.3,1.0,248.7,0.13,16.2,20.2,"08:39:20",1
"18/05/28","08:50",0.0,23.0,65.3,1007.1,248.6,0.7,1.4,236.0,0.16,16.2,20.5,"08:45:28",1
"18/05/28","09:00",0.0,23.2,67.3,1006.7,185.5,0.7,1.6,152.0,0.15,16.8,20.5,"08:53:36",1
"18/05/28","09:10",0.0,23.8,65.8,1006.9,247.5,0.7,1.7,239.0,0.23,17.1,20.3,"09:02:00",1
"18/05/28","09:20",0.0,24.3,64.3,1006.7,193.4,0.8,2.4,186.4,0.32,17.2,20.6,"09:18:24",1
"18/05/28","09:30",0.0,24.3,67.5,1006.7,174.9,1.0,2.2,172.7,0.32,17.9,20.9,"09:22:16",1
"18/05/28","09:40",0.0,25.1,63.7,1006.2,149.0,1.2,2.5,143.7,0.42,17.8,21.0,"09:34:32",1
"18/05/28","09:50",0.0,25.4,63.6,1006.4,210.3,0.8,1.9,204.4,0.37,18.0,21.2,"09:43:28",1
"18/05/28","10:00",0.0,24.4,64.6,1006.2,175.4,1.7,4.0,200.4,0.22,17.3,21.4,"09:58:08",1
"18/05/28","10:10",0.0,24.7,66.1,1006.0,202.5,0.7,2.5,211.5,0.18,18.0,21.4,"10:00:24",1
"18/05/28","10:20",0.0,24.7,65.0,1006.0,317.3,1.1,3.3,222.2,0.18,17.7,21.5,"10:19:04",1
"18/05/28","10:30",0.0,24.8,61.8,1006.0,234.1,1.6,4.1,204.8,0.19,17.0,21.7,"10:23:20",1
"18/05/28","10:40",0.0,25.3,62.4,1006.0,190.6,0.8,2.2,130.9,0.22,17.6,21.8,"10:33:20",1
"18/05/28","10:50",0.0,25.4,60.7,1005.7,129.6,0.8,2.1,350.9,0.28,17.3,21.9,"10:43:20",1
"18/05/28","11:00",0.0,25.2,60.6,1006.0,188.5,1.2,3.2,213.9,0.25,17.1,21.9,"10:54:16",1
"18/05/28","11:10",0.0,25.2,61.3,1005.7,208.7,1.5,3.4,217.0,0.21,17.3,22.0,"11:05:36",1
"18/05/28","11:20",0.0,24.2,62.6,1005.7,176.9,2.0,4.8,197.1,0.13,16.7,22.1,"11:13:04",1
"18/05/28","11:30",0.0,24.5,63.2,1006.4,177.5,1.5,3.1,145.7,0.12,17.1,22.1,"11:21:52",1
"18/05/28","11:40",0.0,25.1,64.1,1006.0,197.1,1.5,3.6,229.7,0.22,17.9,22.0,"11:35:12",1
"18/05/28","11:50",0.0,24.8,60.3,1006.0,189.1,2.1,3.9,215.5,0.18,16.6,22.1,"11:46:40",1
"18/05/28","12:00",0.0,25.0,58.9,1006.0,203.5,2.2,4.2,226.8,0.21,16.4,22.1,"11:53:20",1
"18/05/28","12:10",0.0,24.6,61.4,1006.0,194.7,1.7,2.9,206.9,0.15,16.7,22.2,"12:02:32",1
"18/05/28","12:20",0.0,25.2,60.6,1006.0,215.2,1.6,3.7,151.3,0.17,17.1,22.1,"12:12:16",1
"18/05/28","12:30",0.0,25.4,59.7,1005.7,221.3,1.3,2.7,186.2,0.27,17.0,22.2,"12:25:12",1
"18/05/28","12:40",0.0,25.3,60.8,1005.7,190.8,1.1,2.5,210.6,0.21,17.2,22.2,"12:37:36",1
"18/05/28","12:50",0.0,25.6,57.7,1005.2,167.8,1.2,2.7,186.9,0.28,16.7,22.4,"12:49:28",1
"18/05/28","13:00",0.0,26.1,60.8,1005.2,230.7,0.7,2.6,221.5,0.31,18.0,22.6,"12:51:04",1
"18/05/28","13:10",0.0,26.1,57.5,1006.2,208.0,1.1,2.4,230.8,0.37,17.1,22.5,"13:00:48",1
"18/05/28","13:20",0.0,26.2,57.5,1006.0,179.0,1.5,2.8,215.1,0.31,17.2,22.7,"13:15:52",1
"18/05/28","13:30",0.0,26.8,54.7,1006.2,180.5,1.5,4.0,148.2,0.41,17.0,22.8,"13:23:36",1
"18/05/28","13:40",0.0,26.8,56.1,1006.0,242.9,0.8,1.7,223.2,0.38,17.4,22.9,"13:32:16",1
"18/05/28","13:50",0.0,26.6,56.3,1006.4,209.1,1.2,3.5,207.6,0.29,17.2,22.9,"13:40:16",1
"18/05/28","14:00",0.0,26.4,55.5,1006.4,162.1,2.2,4.2,189.1,0.35,16.8,23.0,"13:59:12",1
"18/05/28","14:10",0.0,25.9,56.0,1006.2,179.6,1.3,4.0,232.7,0.19,16.5,23.2,"14:09:04",1
"18/05/28","14:20",0.0,25.2,60.5,1005.5,177.3,1.5,3.4,221.5,0.09,17.1,23.2,"14:12:16",1
"18/05/28","14:30",0.0,26.1,57.8,1005.0,178.7,1.0,1.9,188.2,0.14,17.2,23.1,"14:25:12",1
"18/05/28","14:40",0.0,26.2,55.8,1004.8,186.7,1.8,4.0,205.2,0.20,16.7,23.0,"14:32:00",1
"18/05/28","14:50",0.0,26.0,54.9,1005.0,206.9,1.8,4.1,214.7,0.16,16.3,23.2,"14:45:20",1
"18/05/28","15:00",0.0,27.0,54.4,1004.5,199.2,2.1,3.7,212.5,0.32,17.1,23.1,"14:50:32",1
"18/05/28","15:10",0.0,26.6,50.8,1004.5,186.9,1.8,3.6,201.7,0.27,15.6,23.2,"15:06:56",1
"18/05/28","15:20",0.0,26.5,52.2,1004.5,214.4,1.3,2.6,229.8,0.21,16.0,23.3,"15:12:16",1
"18/05/28","15:30",0.0,26.5,51.3,1004.5,293.8,0.5,1.4,308.2,0.17,15.7,23.3,"15:20:40",1
"18/05/28","15:40",0.0,26.1,52.6,1005.0,314.8,0.8,2.0,332.7,0.11,15.7,23.4,"15:36:16",1
"18/05/28","15:50",0.0,26.2,50.9,1004.5,308.7,0.8,1.7,344.9,0.07,15.3,23.3,"15:44:00",1
"18/05/28","16:00",0.0,25.9,54.3,1004.8,245.5,1.0,2.2,233.2,0.09,16.0,23.3,"15:57:52",1
"18/05/28","16:10",0.0,25.9,53.7,1005.2,244.5,1.2,2.2,234.0,0.08,15.8,23.2,"16:01:12",1
"18/05/28","16:20",0.0,25.8,55.4,1004.5,263.8,1.1,3.2,232.2,0.06,16.2,23.3,"16:16:48",1
"18/05/28","16:30",0.0,25.9,56.9,1004.5,269.7,1.0,3.1,231.7,0.08,16.7,23.0,"16:28:56",1
"18/05/28","16:40",0.0,25.8,55.9,1004.8,261.8,0.8,2.4,235.7,0.06,16.4,23.1,"16:31:12",1
"18/05/28","16:50",0.0,25.8,53.9,1004.8,285.3,1.0,2.2,304.8,0.06,15.8,23.0,"16:49:20",1
"18/05/28","17:00",0.0,25.9,55.7,1005.0,291.0,0.7,1.7,298.9,0.07,16.4,23.2,"16:57:28",1
"18/05/28","17:10",0.0,26.0,57.4,1004.8,324.1,1.1,2.1,343.8,0.08,17.0,22.9,"17:06:00",1
"18/05/28","17:20",0.0,25.9,57.2,1005.0,293.6,0.6,1.3,300.3,0.06,16.8,22.8,"17:10:32",1
"18/05/28","17:30",0.0,25.6,58.7,1004.8,335.7,1.0,2.0,344.5,0.04,17.0,22.9,"17:20:56",1
"18/05/28","17:40",0.0,25.5,58.8,1004.8,339.7,0.8,1.8,340.6,0.05,16.9,22.7,"17:38:24",1
"18/05/28","17:50",0.0,25.4,60.4,1005.0,344.2,1.1,1.8,332.7,0.04,17.2,22.7,"17:42:00",1
"18/05/28","18:00",0.0,25.1,60.4,1005.0,329.4,1.3,2.7,341.2,0.02,16.9,22.9,"17:57:28",1
"18/05/28","18:10",0.0,24.8,62.2,1005.0,344.8,1.0,1.7,336.3,0.01,17.1,22.7,"18:09:00",1
"18/05/28","18:20",0.0,24.5,64.7,1005.2,331.1,1.1,2.1,342.9,0.00,17.5,22.7,"18:18:40",1
"18/05/28","18:30",0.0,24.1,66.4,1005.2,317.4,1.1,1.8,332.1,0.00,17.5,22.5,"18:24:16",1
"18/05/28","18:40",0.0,23.9,67.3,1006.0,298.2,1.0,2.4,332.2,0.00,17.5,22.6,"18:38:16",1
"18/05/28","18:50",0.0,23.7,68.2,1005.5,315.1,1.2,2.5,325.5,0.00,17.5,22.5,"18:47:44",1
"18/05/28","19:00",0.0,23.3,69.4,1005.7,295.0,0.7,1.4,300.1,0.00,17.4,22.4,"18:53:44",1
"18/05/28","19:10",0.0,23.2,69.4,1006.2,279.5,0.8,1.2,294.7,0.00,17.3,22.3,"19:03:04",1
"18/05/28","19:20",0.0,23.1,69.9,1006.2,300.8,1.2,2.0,321.6,0.00,17.4,22.1,"19:19:44",1
"18/05/28","19:30",0.0,22.8,71.5,1006.4,331.3,1.6,2.7,335.0,0.00,17.4,22.0,"19:23:28",1
"18/05/28","19:40",0.0,22.6,72.4,1006.9,332.1,1.1,1.7,358.3,0.00,17.4,22.0,"19:32:00",1
"18/05/28","19:50",0.0,22.2,73.6,1006.4,291.4,0.8,1.4,329.7,0.00,17.3,22.1,"19:40:08",1
"18/05/28","20:00",0.0,22.1,74.0,1006.9,305.5,1.0,1.4,329.7,0.00,17.3,22.0,"19:54:48",1
"18/05/28","20:10",0.0,21.9,74.1,1006.7,300.3,1.0,1.4,308.4,0.00,17.1,21.8,"20:03:04",1
"18/05/28","20:20",0.0,21.7,75.4,1007.4,310.0,0.7,2.0,339.6,0.00,17.2,21.8,"20:10:02",1
"18/05/28","20:30",0.0,21.4,76.0,1007.4,303.8,1.0,2.0,325.0,0.00,17.0,21.7,"20:20:40",1
"18/05/28","20:40",0.0,21.4,76.6,1007.4,323.6,1.2,2.0,338.6,0.00,17.2,21.5,"20:35:12",1
"18/05/28","20:50",0.0,21.0,78.3,1007.8,309.1,1.0,1.6,341.1,0.00,17.1,21.5,"20:42:32",1
"18/05/28","21:00",0.0,20.6,80.2,1008.1,296.8,1.1,1.9,328.6,0.00,17.1,21.4,"20:56:56",1
"18/05/28","21:10",0.0,20.7,80.8,1008.6,294.3,0.8,1.3,328.1,0.00,17.3,21.4,"21:08:24",1
"18/05/28","21:20",0.0,20.6,80.5,1008.3,288.0,0.7,1.2,311.9,0.00,17.2,21.3,"21:10:16",1
"18/05/28","21:30",0.0,20.6,80.4,1007.8,297.7,0.8,1.1,311.1,0.00,17.1,21.2,"21:20:32",1
"18/05/28","21:40",0.0,20.6,79.9,1008.3,318.9,1.2,1.6,329.9,0.00,17.1,21.2,"21:31:44",1
"18/05/28","21:50",0.0,20.4,80.9,1008.1,314.3,1.0,1.3,311.2,0.00,17.1,21.1,"21:41:04",1
"18/05/28","22:00",0.0,20.4,81.5,1008.3,327.7,1.2,2.1,336.9,0.00,17.2,21.1,"21:54:00",1
"18/05/28","22:10",0.0,20.4,82.6,1008.6,313.2,1.0,1.3,331.2,0.00,17.4,21.2,"22:06:48",1
"18/05/28","22:20",0.0,20.2,83.0,1008.3,313.2,0.8,1.3,341.3,0.00,17.3,21.0,"22:15:44",1
"18/05/28","22:30",0.0,20.0,83.9,1008.3,296.4,1.0,1.4,280.4,0.00,17.2,20.8,"22:26:00",1
"18/05/28","22:40",0.0,20.0,84.2,1008.3,324.1,1.1,1.3,329.0,0.00,17.3,21.0,"22:37:44",1
"18/05/28","22:50",0.0,20.0,84.1,1008.8,336.9,1.3,1.8,354.7,0.00,17.3,20.9,"22:43:44",1
"18/05/28","23:00",0.0,19.5,85.3,1008.3,298.1,0.8,1.3,311.4,0.00,17.0,20.9,"22:58:48",1
"18/05/28","23:10",0.0,19.3,86.3,1008.6,296.4,0.8,1.9,311.2,0.00,17.0,20.6,"23:08:56",1
"18/05/28","23:20",0.0,19.3,86.8,1008.3,301.2,0.8,1.3,309.2,0.00,17.1,20.5,"23:17:28",1
"18/05/28","23:30",0.0,19.4,86.3,1008.3,296.6,0.8,1.6,322.4,0.00,17.1,20.5,"23:21:20",1
"18/05/28","23:40",0.0,19.3,86.8,1008.8,313.0,0.8,1.3,321.7,0.00,17.1,20.4,"23:30:32",1
"18/05/28","23:50",0.0,19.3,87.3,1008.6,317.6,1.0,1.2,311.4,0.00,17.2,20.4,"23:48:00",1
"18/05/28","24:00",0.0,19.1,87.8,1008.3,310.0,1.0,1.4,321.8,0.00,17.1,20.4,"23:51:44",1
